Location: Days
(41.3591°N, 106.7339°W)
Time: 03:52:27
(UTC+00:00)

O/OREOS (USA 219) - Pass Details

Date: 29 June 2022
Orbit: 621 x 646 km, 72.0° (Epoch: 22 May)

Event Time Altitude Azimuth Distance (km) Brightness Sun altitude
Rises 06:30:50 0° 356° (N) 2,961 ? -24.8°
Reaches altitude 10° 06:34:38 10° 27° (NNE) 2,050 ? -24.9°
Maximum altitude 06:36:25 12° 50° (NE) 1,916 ? -24.9°
Drops below altitude 10° 06:38:11 10° 73° (ENE) 2,047 ? -25.0°
Enters shadow 06:39:17 - 85° (E) 2,244 ? -25.0°
